Home   Weather   Clarington   Past weeks

Flag for Canada Past Weather in Clarington, Ontario, Canada — Yesterday and Last 2 Weeks

39 °F


Feels Like: 31 °F
Forecast: 42 / 55 °F
Wind: 15 mph from Northwest

Location: Peterborough Airport

Current Time: Oct 22, 2016 at 11:16:25 PM

Latest Report: Oct 22, 2016 at 10:00 PM

Visibility: 9 mi

Pressure: 29.75 "Hg

Humidity: 70%

Dew Point: 30 °F

Location of ClaringtonLocation

Past Weather in Clarington — Graph


Clarington Temperature Yesterday

Maximum temperature yesterday: 50 °F (at 12:00 AM)
Minimum temperature yesterday: 41 °F (at 11:00 PM)
Average temperature yesterday: 47 °F

High & Low Weather Summary for the Past Weeks

High75 °F (Oct 18, 3:00 PM)100% (Oct 7, 10:00 PM)30.49 "Hg (Oct 7, 10:00 PM)
Low25 °F (Oct 10, 5:00 AM)30% (Oct 11, 3:00 PM)29.54 "Hg (Oct 18, 2:00 PM)
Average50 °F84%30.06 "Hg
* Reported Oct 7 10:00 PM — Oct 22 10:00 PM, Clarington, Weather by CustomWeather, © 2016

Note: Actual official high and low records may vary slightly from our data, if they occured in-between our weather recording intervals... More about our weather records


Clarington Weather History for the Previous 24 Hours

Scroll right to see more
Time TempWeatherWind HumidityBarometerVisibility
10:00 PM
Sat, Oct 22
39 °FClear.15 mph70%29.75 "Hg9 mi
9:00 PM37 °FClear.13 mph75%29.74 "Hg9 mi
8:00 PM39 °FClear.16 mph70%29.74 "Hg9 mi
7:00 PM41 °FClear.14 mph66%29.73 "Hg9 mi
6:00 PM43 °FScattered clouds.20 mph61%29.71 "Hg9 mi
5:00 PM45 °FPassing clouds.17 mph57%29.70 "Hg9 mi
4:00 PM46 °FPassing clouds.21 mph57%29.70 "Hg9 mi
3:00 PM45 °FPartly sunny.21 mph66%29.69 "Hg9 mi
2:00 PM46 °FBroken clouds.15 mph62%29.69 "Hg9 mi
1:00 PM45 °FOvercast.21 mph66%29.70 "Hg9 mi
12:00 PM43 °FOvercast.18 mph71%29.72 "Hg9 mi
11:00 AM41 °FOvercast.20 mph76%29.72 "Hg9 mi
10:00 AM39 °FScattered clouds.16 mph81%29.73 "Hg9 mi
9:00 AM37 °FSunny.13 mph87%29.74 "Hg9 mi
8:00 AM36 °FScattered clouds.13 mph87%29.76 "Hg9 mi
7:00 AM36 °FClear.8 mph87%29.77 "Hg9 mi
6:00 AM37 °FOvercast.8 mph87%29.77 "Hg9 mi
5:00 AM37 °FMostly cloudy.9 mph87%29.79 "Hg9 mi
4:00 AM37 °FMostly cloudy.6 mph87%29.79 "Hg9 mi
3:00 AM39 °FOvercast.9 mph87%29.80 "Hg9 mi
2:00 AM39 °FMostly cloudy.12 mph87%29.83 "Hg9 mi
1:00 AM39 °FOvercast.12 mph93%29.83 "Hg9 mi
12:55 AM39 °FOvercast.10 mph93%29.83 "Hg9 mi
12:00 AM41 °FLight rain. Mostly cloudy.10 mph87%29.85 "Hg9 mi
11:00 PM
Fri, Oct 21
41 °FLight rain. Mostly cloudy.13 mph93%29.86 "Hg9 mi
Weather by CustomWeather, © 2016

See weather overviewHow to use our weather pages